Hourly Data Report for October 05, 2017

All times are specified in Local Standard Time (LST). Add 1 hour to adjust for Daylight Saving Time where and when it is observed.

SHEARWATER RCS
NOVA SCOTIA

44°37'47.000" N
63°30'48.000" W
24.00 m
8205092
71264
AAW

Download Data

Hourly Data (October 2017)
Hourly Data Report for October 5, 2017
Temp Definition
°C
Dew Point Temp Definition
°C
Rel Hum Definition
%
Wind Dir Definition
10's deg

Wind Spd Definition
km/h
Visibility Definition
km
Stn Press Definition
kPa
Hmdx Definition


Wind Chill Definition


Weather Definition


TIME
00:00 13.5 11.5 88 23 15   101.28     LegendNANA
01:00 14.1 12.0 87 23 15   101.21     LegendNANA
02:00 14.4 12.5 88 23 16   101.17     LegendNANA
03:00 14.9 12.8 88 23 14   101.09     LegendNANA
04:00 15.3 13.2 87 24 13   101.05     LegendNANA
05:00 15.6 13.5 87 22 17   101.00     LegendNANA
06:00 15.4 13.2 87 23 14   100.98     LegendNANA
07:00 15.7 13.5 87 24 13   100.99     LegendNANA
08:00 16.6 13.9 84 24 15   101.01     LegendNANA
09:00 18.5 14.3 76 25 11   101.03     LegendNANA
10:00 19.6 14.4 72 27 10   101.04     LegendNANA
11:00 21.8 14.9 65 30 12   101.01 26   LegendNANA
12:00 22.4 12.8 54 30 14   100.99 25   LegendNANA
13:00 23.1 11.9 49 31 13   100.93 25   LegendNANA
14:00 23.6 11.6 47 27 12   100.91 26   LegendNANA
15:00 23.0 10.9 46 24 14   100.91 25   LegendNANA
16:00 21.3 13.9 63 21 17   100.94 25   LegendNANA
17:00 19.9 13.6 67 21 12   100.96     LegendNANA
18:00 17.7 12.3 71 23 6   100.98     LegendNANA
19:00 17.9 9.1 56 28 12   101.07     LegendNANA
20:00 16.8 9.2 61 28 6   101.11     LegendNANA
21:00 14.6 8.9 69 24 5   101.19     LegendNANA
22:00 15.0 9.1 68 25 8   101.21     LegendNANA
23:00 14.4 8.7 69 26 7   101.23     LegendNANA

Notes on Data Quality.

Legend

  • E = Estimated
  • M = Missing
  • NA = Not Available
  • ‡ = Partner data that is not subject to review by the National Climate Archives
Date modified: